Weather in Pervoye Churashevo

Russia / Chuvash Republic     55°56′50″N   47°40′47″E
temp.,
°C
wind,
m/s
gust,
m/s
humid.,
%
clouds,
%
prec.,
mm/h
press.,
hPa
HPBL,
m
17 october, sun
sun1700:00+7ssw6146181 0.0 1016482
03:00+6ssw6146646 0.0 1015445
06:00+6ssw6137059 0.0 1015435
09:00+8wsw61165100 0.0 1015836
12:00+11sw69536 0.0 10151291
15:00+11sw6855100 0.0 10141302
18:00+9ssw51171100 0.0 1014503
21:00+8sw41076100 0.1 1013247
18 october, mon
mon1800:00+6sw398793 0.0 1012189
03:00+5sw368975 0.0 1012113
06:00+4sw369074 0.0 1011106
09:00+6sw477563 0.0 1010325
12:00+10wsw575985 0.0 10091301
15:00+8wsw4858100 0.0 10081042
18:00+8sw5105799 0.0 1007596
21:00+6w81273100 0.1 1008873
19 october, tue
tue1900:00+3wnw5883100 0.2 1009424
03:00+2w3689100 0.2 1010241
06:00+1wsw3694100 0.0 1010153
09:00+3w46778 0.0 1011399
12:00+6w4563100 0.0 10111177
15:00+5wnw3560100 0.0 10111070
18:00+4wnw3454100 0.0 1012242
21:00+2nw248696 0.1 1012157
20 october, wed
wed2000:00+1nnw349572 0.1 1013173
03:000nw259282 0.1 1013208
06:00−1nw359435 0.0 1014108
09:00+1nw458564 0.0 1015416
12:00+3nnw5664100 0.1 10161169
15:00+4nw575238 0.1 10161473
18:000nnw387340 0.0 1018237
21:00−1nw368180 0.0 1019274
21 october, thu
thu2100:00−2wnw23875 0.0 101937
03:00−3wsw22885 0.0 101915
06:00−4ssw349190 0.0 101872
09:000ssw61174100 0.0 1016495
12:00+3ssw71351100 0.0 1012727
15:00+2ssw91674100 0.3 1008724
18:00+3ssw81790100 2.2 1005632
21:00+5sw81689100 2.3 1002576